Regional Weather Roundup
Issued by NWS

Home | Current Version | Previous Version | Text Only | Print | Product List | Glossary Off
Versions: 1 2 3 4 5 6 7 8 9 10 11 12 13 14 15 16 17 18 19 20 21 22 23 24 25 26 27 28 29 30 31 32 33 34 35 36 37 38 39 40 41 42 43 44 45 46 47 48 49 50

000
ASUS45 KBOU 231507
RWRCO

WEATHER ROUNDUP FOR COLORADO
NATIONAL WEATHER SERVICE DENVER/BOULDER CO
900 AM MDT WED AUG 23 2017

NOTE: "FAIR" INDICATES FEW OR NO CLOUDS BELOW 12000 FEET WITH NO
SIGNIFICANT WEATHER AND/OR OBSTRUCTIONS TO VISIBILITY.

COZ001>005-013-030-031-231600-
...NORTHWEST COLORADO...

CITY           SKY/WX    TMP DP  RH WIND       PRES   REMARKS
CRAIG          FAIR      59  47  64 CALM      30.33R
HAYDEN         FAIR      61  41  47 E9        30.36R
MEEKER         PTSUNNY   65  44  46 VRB3      30.34S
RABBIT EARS PA CLOUDY    52  37  58 W10       30.59S
STEAMBOAT SPGS CLOUDY    56  43  61 CALM      30.36F
WALDEN         PTSUNNY   54  41  62 CALM      30.45R
$$

COZ006>008-011-231600-
...WEST CENTRAL VALLEYS...

CITY           SKY/WX    TMP DP  RH WIND       PRES   REMARKS
GRAND JUNCTION FAIR      72  51  47 SE12      30.24R
MONTROSE       FAIR      64  47  53 S5        30.33S
EAGLE          FAIR      61  41  47 CALM      30.39S
RIFLE          FAIR      66  46  48 CALM      30.30S
DELTA          FAIR      66  47  50 E5        30.30R
NUCLA          FAIR      63  45  51 CALM      30.36S
$$

COZ017>023-064>068-231600-
...SOUTHWEST COLORADO...

CITY           SKY/WX    TMP DP  RH WIND       PRES   REMARKS
DURANGO        FAIR      64  44  48 CALM      30.38R
CORTEZ         FAIR      67  51  56 CALM      30.31S
PAGOSA SPRINGS FAIR      58  44  59 CALM      30.46S
TELLURIDE      FAIR      57  44  63 CALM      30.55S
WOLF CREEK PAS FAIR      45  41  87 SW9       30.75S
$$

COZ009-010-012-014-032>034-037-058>063-231600-
...CENTRAL COLORADO...

CITY           SKY/WX    TMP DP  RH WIND       PRES   REMARKS
ASPEN          FAIR      59  44  57 SW5       30.42S
BUENA VISTA    FAIR      56  43  62 NW3       30.43F
COPPER MTN     FAIR      52  36  54 NW6       30.70R
BERTHOUD PASS  CLOUDY    43  37  81 NW8       30.73R
COTTONWOOD PAS FAIR      61  41  48 CALM      30.54S
GUNNISON       FAIR      52  41  66 CALM      30.49S
KREMMLING      FAIR      61  41  48 CALM      30.43S
LEADVILLE      FAIR      54  39  57 CALM      30.54S
MONARCH PASS   FAIR      45  36  70 W21       30.79R
SALIDA         FAIR      60  45  58 N7        30.47F
SUNLIGHT       FAIR      52  36  54 CALM      30.65R
WILKERSON PASS PTSUNNY   55  32  41 NE5       30.65S
$$

COZ069>075-231600-
...SAN LUIS VALLEY/SANGRE DE CRISTO MOUNTAINS...

CITY           SKY/WX    TMP DP  RH WIND       PRES   REMARKS
ALAMOSA        FAIR      54  50  86 E5        30.45R
DEL NORTE      FAIR      56  45  66 W8        30.48R
LA VETA PASS   NOT AVBL
SAGUACHE         N/A    N/A N/A N/A MISG        N/A
$$

COZ035-036-038>040-231600-
...NORTHERN COLORADO FRONT RANGE...

CITY           SKY/WX    TMP DP  RH WIND       PRES   REMARKS
DENVER INTL AP PTSUNNY   72  47  40 W10       30.20S
DMNS CITY PARK   N/A     71  48  43 E7        30.20S
AURORA         PTSUNNY   69  48  47 SW6       30.23R
FRONT RANGE AP FAIR      72  50  46 W9G16     30.22S
ERIE MUNI ARPT FAIR      69  53  56 CALM      30.24R
BOULDER MUN AP FAIR      68  52  56 CALM      30.20R
CENTENNIAL     PTSUNNY   71  44  37 W5        30.24R
BROOMFIELD     PTSUNNY   70  55  60 E3        30.22S
FORT COLLINS   FAIR      69  57  65 NE3       30.19S
LONGMONT       FAIR      71  52  50 CALM      30.20S
$$

COZ041-046-047-076>085-087-088-231600-
...PIKES PEAK/PALMER DIVIDE AND SOUTHERN FOOTHILLS...

CITY           SKY/WX    TMP DP  RH WIND       PRES   REMARKS
COLO. SPRINGS  FAIR      64  55  72 CALM      30.29F
A. F. ACADEMY  PTSUNNY   64  52  64 S5        30.30S
SCHRIEVER AFB  FAIR      61  53  75 CALM      30.29F
CHEYENNE MTN   FAIR      62  52  71 E3        30.27S
ELLICOTT       FAIR     N/A N/A N/A S7        30.27S
FALCON         FAIR      63  50  61 SW3       30.33S
FORT CARSON    FAIR      63  55  75 CALM      30.27S
LIMON          CLOUDY    64  59  83 S12       30.25S
MONUMENT HILL  FAIR      63  50  63 SW8       30.33S
CANON CITY     SUNNY     72  52  49 W7        30.24S
WALSENBURG     FAIR      75  46  35 W10       30.28F
TRINIDAD       FAIR      68  51  54 SW12      30.28S
$$

COZ042>045-048>051-090-091-231600-
...NORTHEAST COLORADO...

CITY           SKY/WX    TMP DP  RH WIND       PRES   REMARKS
GREELEY ARPT   NOT AVBL
AKRON          FAIR      72  57  59 S16G23    30.17S
BURLINGTON     CLOUDY    67  59  75 S20G28    30.20F
WRAY           PTSUNNY   70  54  56 S12G24    30.18S
YUMA           FAIR      66  50  55 S16G25    30.16F
STERLING       FAIR      70  59  68 S7        30.13S
HOLYOKE        FAIR      68  54  60 S13G20    30.17S
FORT MORGAN    FAIR      69  52  54 SW8       30.16R
$$

COZ086-089-092>099-231600-
...SOUTHEAST COLORADO...

CITY           SKY/WX    TMP DP  RH WIND       PRES   REMARKS
PUEBLO         FAIR      67  53  61 CALM      30.21F
LA JUNTA       FAIR      70  60  70 S8        30.20S
LAMAR          CLOUDY    70  62  76 S14       30.19F
SPRINGFIELD      N/A     65  64  97 S15       30.25S
$$



USA.gov is the U.S. government's official web portal to all federal, state and local government web resources and services.